TimeCDT,TemperatureF,Dew PointF,Humidity,Sea Level PressureIn,VisibilityMPH,Wind Direction,Wind SpeedMPH,Gust SpeedMPH,PrecipitationIn,Events,Conditions,WindDirDegrees,DateUTC
12:15 AM,75.2,59.0,57,30.05,10.0,SSE,11.5,-,N/A,,Clear,160,2013-08-21 05:15:00
12:35 AM,75.2,59.0,57,30.05,10.0,SSE,11.5,-,N/A,,Clear,160,2013-08-21 05:35:00
12:55 AM,75.2,59.0,57,30.05,10.0,SSE,11.5,-,N/A,,Clear,160,2013-08-21 05:55:00
1:15 AM,73.4,59.0,61,30.05,10.0,South,11.5,-,N/A,,Clear,170,2013-08-21 06:15:00
1:35 AM,73.4,59.0,61,30.05,10.0,South,10.4,-,N/A,,Clear,170,2013-08-21 06:35:00
1:55 AM,73.4,59.0,61,30.05,10.0,South,11.5,-,N/A,,Clear,180,2013-08-21 06:55:00
2:15 AM,73.4,59.0,61,30.05,10.0,South,10.4,-,N/A,,Clear,180,2013-08-21 07:15:00
2:35 AM,73.4,59.0,61,30.05,10.0,South,12.7,-,N/A,,Clear,180,2013-08-21 07:35:00
2:55 AM,73.4,59.0,61,30.05,10.0,South,10.4,-,N/A,,Clear,180,2013-08-21 07:55:00
3:15 AM,71.6,57.2,60,30.05,10.0,South,8.1,-,N/A,,Clear,180,2013-08-21 08:15:00
3:35 AM,69.8,57.2,64,30.04,10.0,South,9.2,-,N/A,,Clear,180,2013-08-21 08:35:00
3:55 AM,71.6,57.2,60,30.04,10.0,South,11.5,-,N/A,,Clear,190,2013-08-21 08:55:00
4:15 AM,71.6,57.2,60,30.04,10.0,South,11.5,-,N/A,,Clear,190,2013-08-21 09:15:00
4:35 AM,71.6,57.2,60,30.04,10.0,South,10.4,-,N/A,,Clear,190,2013-08-21 09:35:00
4:55 AM,69.8,57.2,64,30.04,10.0,South,10.4,-,N/A,,Clear,190,2013-08-21 09:55:00
5:15 AM,69.8,57.2,64,30.05,10.0,South,11.5,-,N/A,,Clear,190,2013-08-21 10:15:00
5:35 AM,69.8,57.2,64,30.04,10.0,South,11.5,-,N/A,,Clear,180,2013-08-21 10:35:00
5:55 AM,69.8,57.2,64,30.04,10.0,South,11.5,-,N/A,,Clear,180,2013-08-21 10:55:00
6:15 AM,69.8,57.2,64,30.04,10.0,South,12.7,-,N/A,,Clear,170,2013-08-21 11:15:00
6:35 AM,69.8,57.2,64,30.05,10.0,South,11.5,-,N/A,,Clear,170,2013-08-21 11:35:00
6:55 AM,69.8,57.2,64,30.05,10.0,South,12.7,-,N/A,,Clear,170,2013-08-21 11:55:00
7:15 AM,69.8,57.2,64,30.06,10.0,South,13.8,-,N/A,,Clear,170,2013-08-21 12:15:00
7:35 AM,69.8,57.2,64,30.06,10.0,South,12.7,-,N/A,,Clear,190,2013-08-21 12:35:00
7:55 AM,69.8,57.2,64,30.06,10.0,South,15.0,-,N/A,,Clear,180,2013-08-21 12:55:00
8:15 AM,71.6,57.2,60,30.06,10.0,South,16.1,-,N/A,,Clear,180,2013-08-21 13:15:00
8:35 AM,73.4,59.0,61,30.07,10.0,South,17.3,-,N/A,,Clear,190,2013-08-21 13:35:00
8:55 AM,75.2,60.8,61,30.07,10.0,South,17.3,-,N/A,,Clear,190,2013-08-21 13:55:00
9:15 AM,78.8,60.8,54,30.07,10.0,SSW,19.6,-,N/A,,Scattered Clouds,200,2013-08-21 14:15:00
9:35 AM,80.6,59.0,48,30.07,10.0,South,25.3,31.1,N/A,,Partly Cloudy,190,2013-08-21 14:35:00
9:55 AM,82.4,57.2,42,30.08,10.0,SSW,24.2,32.2,N/A,,Clear,200,2013-08-21 14:55:00
10:15 AM,82.4,57.2,42,30.08,10.0,SSW,24.2,29.9,N/A,,Clear,200,2013-08-21 15:15:00
10:35 AM,84.2,57.2,40,30.08,8.0,SSW,23.0,28.8,N/A,,Clear,200,2013-08-21 15:35:00
10:55 AM,86.0,57.2,37,30.09,8.0,SSW,27.6,-,N/A,,Clear,200,2013-08-21 15:55:00
11:15 AM,87.8,57.2,35,30.09,10.0,SSW,25.3,28.8,N/A,,Clear,200,2013-08-21 16:15:00
11:35 AM,87.8,57.2,35,30.08,10.0,SSW,24.2,32.2,N/A,,Clear,200,2013-08-21 16:35:00
11:55 AM,89.6,59.0,36,30.08,9.0,SSW,26.5,31.1,N/A,,Clear,200,2013-08-21 16:55:00
12:15 PM,89.6,59.0,36,30.08,10.0,SSW,26.5,31.1,N/A,,Clear,200,2013-08-21 17:15:00
12:35 PM,91.4,59.0,34,30.08,10.0,SSW,25.3,33.4,N/A,,Clear,200,2013-08-21 17:35:00
12:55 PM,91.4,59.0,34,30.07,10.0,SSW,24.2,31.1,N/A,,Clear,200,2013-08-21 17:55:00
1:15 PM,93.2,59.0,32,30.07,10.0,SSW,24.2,31.1,N/A,,Clear,200,2013-08-21 18:15:00
1:35 PM,93.2,59.0,32,30.06,10.0,SSW,24.2,-,N/A,,Clear,210,2013-08-21 18:35:00
1:55 PM,93.2,59.0,32,30.06,10.0,SSW,24.2,-,N/A,,Clear,200,2013-08-21 18:55:00
2:15 PM,95.0,59.0,30,30.06,10.0,SSW,23.0,32.2,N/A,,Clear,200,2013-08-21 19:15:00
2:35 PM,96.8,59.0,28,30.06,10.0,SSW,24.2,27.6,N/A,,Clear,200,2013-08-21 19:35:00
2:55 PM,96.8,59.0,28,30.05,10.0,South,26.5,31.1,N/A,,Clear,190,2013-08-21 19:55:00
3:15 PM,96.8,57.2,27,30.05,10.0,South,23.0,29.9,N/A,,Clear,190,2013-08-21 20:15:00
3:35 PM,96.8,59.0,28,30.05,10.0,South,20.7,26.5,N/A,,Clear,180,2013-08-21 20:35:00
3:55 PM,96.8,57.2,27,30.04,10.0,South,21.9,28.8,N/A,,Clear,190,2013-08-21 20:55:00
4:15 PM,96.8,57.2,27,30.04,10.0,South,20.7,-,N/A,,Clear,190,2013-08-21 21:15:00
4:35 PM,96.8,57.2,27,30.04,10.0,South,19.6,26.5,N/A,,Clear,190,2013-08-21 21:35:00
4:55 PM,96.8,57.2,27,30.03,10.0,South,19.6,28.8,N/A,,Clear,180,2013-08-21 21:55:00
5:15 PM,96.8,57.2,27,30.03,10.0,South,21.9,27.6,N/A,,Clear,170,2013-08-21 22:15:00
5:35 PM,96.8,57.2,27,30.03,10.0,South,21.9,27.6,N/A,,Clear,180,2013-08-21 22:35:00
5:55 PM,95.0,55.4,26,30.02,10.0,South,19.6,-,N/A,,Clear,190,2013-08-21 22:55:00
6:15 PM,95.0,55.4,26,30.02,10.0,South,20.7,26.5,N/A,,Clear,190,2013-08-21 23:15:00
6:35 PM,93.2,55.4,28,30.02,10.0,South,18.4,-,N/A,,Clear,180,2013-08-21 23:35:00
6:55 PM,93.2,55.4,28,30.02,10.0,South,20.7,25.3,N/A,,Clear,180,2013-08-21 23:55:00
7:15 PM,93.2,53.6,26,30.02,10.0,South,17.3,24.2,N/A,,Clear,180,2013-08-22 00:15:00
7:35 PM,91.4,53.6,28,30.02,10.0,South,16.1,19.6,N/A,,Clear,180,2013-08-22 00:35:00
7:55 PM,89.6,57.2,33,30.03,10.0,SSE,15.0,21.9,N/A,,Clear,160,2013-08-22 00:55:00
8:15 PM,86.0,57.2,37,30.03,10.0,SSE,15.0,-,N/A,,Clear,160,2013-08-22 01:15:00
8:35 PM,84.2,55.4,37,30.03,10.0,SSE,13.8,19.6,N/A,,Clear,150,2013-08-22 01:35:00
8:55 PM,82.4,55.4,39,30.04,10.0,SSE,12.7,-,N/A,,Clear,150,2013-08-22 01:55:00
9:15 PM,80.6,55.4,42,30.05,10.0,SSE,13.8,-,N/A,,Clear,150,2013-08-22 02:15:00
9:35 PM,80.6,55.4,42,30.06,10.0,SSE,12.7,-,N/A,,Clear,160,2013-08-22 02:35:00
9:55 PM,78.8,55.4,44,30.07,10.0,SSE,12.7,-,N/A,,Clear,160,2013-08-22 02:55:00
10:15 PM,78.8,55.4,44,30.08,10.0,SSE,11.5,-,N/A,,Clear,160,2013-08-22 03:15:00
10:35 PM,77.0,53.6,44,30.09,10.0,South,13.8,-,N/A,,Clear,170,2013-08-22 03:35:00
10:55 PM,77.0,53.6,44,30.09,10.0,South,13.8,-,N/A,,Partly Cloudy,170,2013-08-22 03:55:00
11:15 PM,75.2,53.6,47,30.09,10.0,South,15.0,-,N/A,,Partly Cloudy,170,2013-08-22 04:15:00
11:35 PM,75.2,53.6,47,30.10,10.0,South,12.7,-,N/A,,Clear,170,2013-08-22 04:35:00
11:55 PM,75.2,53.6,47,30.09,10.0,South,12.7,-,N/A,,Clear,170,2013-08-22 04:55:00